Location: Dodge City Co - Operative Exchange Grain Elevator Number 8
(38.1218°N, 99.7124°W)
Time: 08:27:41
(UTC+00:00)

COSMO-SKYMED 1 - Pass Details

Date: 03 March 2021
Orbit: 621 x 623 km, 97.9° (Epoch: 13 April)

Event Time Altitude Azimuth Distance (km) Brightness Sun altitude
Rises 12:25:59 0° 185° (S) 2,888 6.0 -8.9°
Reaches altitude 10° 12:28:18 10° 194° (SSW) 1,987 5.0 -8.5°
Maximum altitude 12:32:18 37° 262° (W) 974 3.1 -7.7°
Drops below altitude 10° 12:36:21 10° 330° (NNW) 2,001 4.9 -6.9°
Sets 12:38:41 0° 339° (NNW) 2,912 5.8 -6.4°
